Location: Lecco
(45.8566°N, 9.3977°E)
Time: 08:50:02
(UTC+02:00)

S-56A Canister/Altair - Pass Details

Date: 31 July 2019
Orbit: 633 x 2499 km, 38.9° (Epoch: 25 August)

Event Time Altitude Azimuth Distance (km) Brightness Sun altitude
Rises 12:38:22 0° 279° (W) 5,739 11.8 60.5°
Reaches altitude 10° 12:43:46 10° 262° (W) 4,959 11.7 60.9°
Maximum altitude 12:51:54 18° 227° (SW) 4,512 11.9 61.4°
Drops below altitude 10° 13:00:20 10° 193° (SSW) 5,118 12.3 61.8°
Sets 13:06:10 0° 176° (S) 5,988 12.5 62.0°
